FW0904 Weather Reports


time (UTC)temp
C
wind
direction
speed
KPH
gust
KPH
rain 1hr
cm
rain 24hr
cm
rain mn
cm
humidity
%
barometer
mb
20260506124552 13 214 1.6 6.4 0.00 0.00 0.00 65 1013.9
20260506123051 12 42 0.0 3.2 0.00 0.00 0.00 66 1013.9
20260506121648 12 42 0.0 3.2 0.00 0.00 0.00 62 1013.8
20260506120046 13 46 1.6 4.8 0.00 0.00 0.00 61 1013.8
20260506114544 15 59 0.0 6.4 0.00 0.00 0.00 58 1013.7
20260506113040 14 82 0.0 4.8 0.00 0.00 0.00 64 1013.6
20260506111538 12 58 0.0 3.2 0.00 0.00 0.00 65 1013.8
20260506110035 13 58 0.0 3.2 0.00 0.00 0.00 67 1013.8
20260506104535 13 58 0.0 4.8 0.00 0.00 0.00 66 1013.7
20260506103042 12 65 0.0 4.8 0.00 0.00 0.00 66 1013.8
20260506101531 13 78 0.0 4.8 0.00 0.00 0.00 65 1013.7
20260506100029 13 86 1.6 4.8 0.00 0.00 0.00 62 1013.7
20260506094527 12 99 0.0 8.0 0.00 0.00 0.00 68 1013.8
20260506093024 13 50 1.6 8.0 0.00 0.00 0.00 67 1013.7
20260506091521 11 80 1.6 4.8 0.00 0.00 0.00 73 1013.7
20260506090026 12 71 0.0 4.8 0.00 0.00 0.00 72 1013.7
20260506084520 11 76 0.0 4.8 0.00 0.00 0.00 72 1013.6
20260506083015 11 46 0.0 4.8 0.00 0.00 0.00 74 1013.4
20260506081512 11 45 1.6 4.8 0.00 0.00 0.00 73 1013.4
20260506073004 9 130 0.0 14.5 0.00 0.00 0.00 78 1013.5
20260506071604 9 46 1.6 4.8 0.00 0.00 0.00 80 1013.4
20260506061603 8 13 0.0 14.5 0.00 0.00 0.00 84 1013.3
20260506050109 7 52 0.0 1.6 0.00 0.00 0.00 86 1013.0
20260506044556 7 40 0.0 0.0 0.00 0.00 0.00 87 1012.9
20260506043101 7 40 0.0 0.0 0.00 0.00 0.00 85 1012.7
20260506041553 8 40 0.0 1.6 0.00 0.00 0.00 85 1012.7
20260506040100 8 40 0.0 1.6 0.00 0.00 0.00 84 1012.7
20260506034550 8 40 0.0 3.2 0.00 0.00 0.00 84 1012.8
20260506033048 8 40 0.0 3.2 0.00 0.00 0.00 84 1012.8
20260506031550 8 38 0.0 4.8 0.00 0.00 0.00 84 1012.8
20260506030045 8 48 0.0 3.2 0.00 0.00 0.00 84 1012.9
20260506024552 8 48 0.0 3.2 0.00 0.00 0.00 83 1013.0
20260506023039 9 41 0.0 1.6 0.00 0.00 0.00 83 1013.1
20260506021551 9 41 0.0 3.2 0.00 0.00 0.00 82 1013.1
20260506020035 9 46 0.0 3.2 0.00 0.00 0.00 82 1013.2
20260506014536 9 43 0.0 3.2 0.00 0.00 0.00 82 1013.2
20260506013033 9 43 0.0 3.2 0.00 0.00 0.00 82 1013.2
20260506011536 10 43 0.0 3.2 0.00 0.00 0.00 82 1013.2
20260506010030 10 41 0.0 3.2 0.00 0.00 0.00 82 1013.2
20260506004530 10 47 0.0 4.8 0.00 0.00 0.00 82 1013.3
20260506003028 10 48 1.6 4.8 0.00 0.00 0.00 82 1013.2
20260506001527 10 54 1.6 4.8 0.00 0.00 0.00 82 1013.2
20260506000030 10 48 0.0 6.4 0.00 0.00 0.00 81 1013.3
20260505234525 10 49 1.6 4.8 0.00 0.00 0.00 82 1013.3
20260505233023 10 48 1.6 4.8 0.00 0.00 0.00 83 1013.3
20260505231524 10 47 0.0 3.2 0.00 0.00 0.00 83 1013.3
20260505230019 10 47 0.0 3.2 0.00 0.00 0.00 82 1013.4
20260505224519 10 47 0.0 3.2 0.00 0.00 0.00 81 1013.5
20260505223026 10 47 0.0 3.2 0.00 0.00 0.00 80 1013.5
20260505221518 10 47 0.0 1.6 0.00 0.00 0.00 81 1013.6
20260505220017 10 47 0.0 1.6 0.00 0.00 0.00 81 1013.6
20260505214524 10 47 0.0 3.2 0.00 0.00 0.00 81 1013.4
20260505213019 10 47 0.0 1.6 0.00 0.00 0.00 82 1013.5
20260505211516 10 47 0.0 0.0 0.00 0.00 0.00 82 1013.5
20260505210015 10 47 0.0 0.0 0.00 0.00 0.00 81 1013.5
20260505204516 10 47 0.0 0.0 0.00 0.00 0.00 80 1013.5
20260505203014 10 47 0.0 0.0 0.00 0.00 0.00 79 1013.4
20260505201514 10 47 0.0 0.0 0.00 0.00 0.00 76 1013.3
20260505200013 10 47 0.0 0.0 0.00 0.00 0.00 74 1013.2
20260505194513 10 47 0.0 0.0 0.00 0.00 0.00 72 1012.9
20260505193012 11 47 0.0 0.0 0.00 0.00 0.00 71 1012.8
20260505191515 11 47 0.0 0.0 0.00 0.00 0.00 70 1012.8
20260505190019 11 47 0.0 0.0 0.00 0.00 0.00 68 1012.7
20260505184512 11 47 0.0 1.6 0.00 0.00 0.00 67 1012.6
20260505183010 12 47 0.0 1.6 0.00 0.00 0.00 67 1012.4
20260505181509 12 47 0.0 1.6 0.00 0.00 0.00 66 1012.5
20260505180014 12 47 0.0 1.6 0.00 0.00 0.00 65 1012.4
20260505174509 13 47 0.0 1.6 0.00 0.00 0.00 63 1012.5
20260505173007 13 47 0.0 3.2 0.00 0.00 0.00 62 1012.5
20260505171508 14 47 0.0 1.6 0.00 0.00 0.00 62 1012.4
20260505170007 14 47 0.0 3.2 0.00 0.00 0.00 61 1012.4
20260505164505 15 47 0.0 3.2 0.00 0.00 0.00 60 1012.5
20260505163009 15 47 0.0 4.8 0.00 0.00 0.00 59 1012.5
20260505161502 15 47 0.0 3.2 0.00 0.00 0.00 58 1012.5
20260505153103 16 59 0.0 4.8 0.00 0.00 0.00 57 1012.6
20260505151604 16 43 0.0 3.2 0.00 0.00 0.00 55 1012.7
20260505140107 16 44 0.0 4.8 0.00 0.00 0.00 62 1012.9